Regional Weather Roundup
Issued by NWS Charleston, WV

Home | Current Version | Previous Version | Graphics & Text | Print | Product List | Glossary On
Versions: 1 2 3 4 5 6 7 8 9 10 11 12 13 14 15 16 17 18 19 20 21 22 23 24 25 26 27
000
ASUS41 KRLX 152310
RWRRLX
West Virginia Regional Weather Roundup
National Weather Service Charleston WV
700 PM EDT TUE APR 15 2014

Note: "fair" indicates few or no clouds below 12,000 feet with no
significant weather and/or obstructions to visibility.

WVZ003-160000-
Northern Panhandle of West Virginia

CITY           SKY/WX    TMP DP  RH WIND       PRES   REMARKS
WHEELING       CLOUDY    30  19  63 NW18G28   30.04R
$$

WVZ009-160000-
Northwest West Virginia

CITY           SKY/WX    TMP DP  RH WIND       PRES   REMARKS
PARKERSBURG    CLOUDY    34  20  56 NW14G24   30.12R
$$

WVZ006-160000-
Western West Virginia

CITY           SKY/WX    TMP DP  RH WIND       PRES   REMARKS
HUNTINGTON     CLOUDY    36  20  52 NW9G17    30.11R
$$

WVZ015-160000-
West Central West Virginia

CITY           SKY/WX    TMP DP  RH WIND       PRES   REMARKS
CHARLESTON     CLOUDY    36  24  62 NW8       30.08R
$$

WVZ031-160000-
North Central West Virginia

CITY           SKY/WX    TMP DP  RH WIND       PRES   REMARKS
CLARKSBURG     FLURRIES  33  24  69 NW16      30.03R
MORGANTOWN     CLOUDY    34  24  67 NW8       30.02R
$$

WVZ035-042-045-160000-
South Central West Virginia

CITY           SKY/WX    TMP DP  RH WIND       PRES   REMARKS
BECKLEY        CLOUDY    30  23  75 NW14G30   29.96R
BLUEFIELD      CLOUDY    32  24  72 NW14G33   29.94R
LEWISBURG      CLOUDY    32  24  74 NW14G24   29.94R
$$

WVZ047-160000-
Northern Mountains of West Virginia

CITY           SKY/WX    TMP DP  RH WIND       PRES   REMARKS
ELKINS         FLURRIES  31  26  82 NW10G20   29.97R
$$

WVZ052-160000-
Eastern Panhandle of West Virginia

CITY           SKY/WX    TMP DP  RH WIND       PRES   REMARKS
MARTINSBURG    LGT RAIN  40  31  70 N16       29.87S
PETERSBURG     CLOUDY    43  32  65 NW8       29.93R
$$



USA.gov is the U.S. government's official web portal to all federal, state and local government web resources and services.